Lid_Strength_Index
2 2 2 2 2 3 5 5 5 5 6 5 5 6 6 7 8 8 8 8 8 8 7 7 7 5 5 4 3 3 3 4 6 8 8 8 9 7 6 7 6 8 8
2 3 3 3 3 4 5 5 5 6 6 6 5 5 5 6 6 7 8 8 8 8 8 7 7 6 7 6 4 5 4 4 6 9 8 8 9 9 9 8 8 8 9
2 3 3 4 4 4 4 4 5 6 6 4 5 5 4 5 5 6 7 7 8 8 8 8 8 8 8 7 6 5 5 6 7 8 9 7 7 7 7 7 7 7 6
2 4 5 4 4 4 4 4 6 6 6 6 6 4 4 4 4 5 6 7 7 7 7 7 8 8 8 8 7 6 6 7 8 8 8 8 8 7 7 8 9 7 7
1 3 4 5 5 4 4 4 5 4 5 4 6 6 5 4 5 6 5 6 7 7 7 6 6 6 6 6 7 7 6 7 8 9 10 10 9 8 9 8 8 7 6
2 4 4 4 4 4 4 4 4 3 4 4 6 6 6 5 5 5 6 6 6 7 7 6 6 6 5 6 6 6 7 8 9 10 10 11 10 8 7 7 7 8 9
3 3 5 5 4 5 3 4 4 3 3 4 4 6 6 6 5 5 5 6 6 6 6 7 6 5 6 6 6 6 6 7 7 8 9 9 9 7 6 7 7 7 7
3 3 4 5 4 4 4 4 5 3 3 3 3 4 4 5 5 6 5 5 6 5 6 6 7 7 6 7 7 7 7 7 7 7 7 7 6 6 5 4 5 6 6
3 3 4 3 4 4 5 5 4 4 4 4 3 3 4 6 5 6 6 5 5 5 5 5 6 7 7 7 7 8 8 7 6 6 6 6 6 6 6 7 7 8 9
3 3 3 3 4 4 4 5 5 4 4 4 4 4 4 5 6 6 5 5 6 6 6 5 5 5 7 7 8 8 9 8 7 7 7 7 7 7 6 6 7 7 6
2 2 4 4 4 4 4 6 6 5 4 5 5 5 5 4 7 6 6 5 5 6 6 6 5 6 7 8 8 8 8 7 6 6 5 5 6 6 6 5 4 3 4
2 3 4 4 3 3 4 5 5 6 7 7 6 6 5 5 5 7 7 6 6 6 6 5 5 6 8 8 8 7 7 6 7 6 6 5 4 3 2 2 2 3 2
3 4 4 4 3 4 3 4 5 6 6 6 6 6 6 5 5 5 7 7 6 6 5 3 5 5 6 6 6 6 6 6 6 6 5 3 3 3 2 2 1 1 2
4 4 4 4 4 4 3 3 3 4 5 5 5 5 6 6 5 5 4 5 5 4 4 5 5 5 5 3 4 5 4 4 4 4 3 3 3 4 3 2 3 4 4
3 3 4 4 4 4 3 3 2 3 3 4 4 4 4 4 3 3 3 4 5 5 6 6 6 5 4 3 3 2 4 4 3 2 3 3 4 4 4 4 5 5 6
3 3 3 3 4 3 3 3 4 3 4 4 5 4 3 4 4 5 5 5 5 4 4 4 4 3 3 4 3 3 3 2 2 3 3 3 4 4 4 4 4 5 5
3 3 2 3 3 4 3 3 3 3 4 5 5 5 5 4 5 5 5 6 6 6 5 4 4 3 3 3 4 4 3 2 1 2 2 2 3 3 5 4 4 5 5
2 3 3 2 2 3 2 2 3 4 4 3 6 5 5 5 5 5 6 6 6 7 5 4 3 3 4 5 4 4 3 2 2 2 2 2 3 3 4 5 5 6 6
2 2 2 2 3 3 2 2 2 3 3 3 3 7 6 6 7 8 8 4 4 4 4 4 3 3 4 4 4 3 3 4 4 3 3 4 4 4 5 6 6 8 9
2 3 3 3 3 4 3 4 3 3 3 3 3 3 4 8 7 6 6 4 4 4 3 2 2 2 2 4 4 4 4 3 3 3 4 5 5 6 7 7 7 9 9
2 2 5 3 2 3 4 4 3 3 3 3 2 2 7 5 5 5 4 4 4 3 2 2 3 2 3 3 4 4 3 4 5 5 6 6 5 6 8 9 9 9 8
3 3 3 3 3 4 4 4 5 5 4 3 2 2 8 5 4 4 4 4 3 2 1 2 2 2 3 3 3 3 4 5 6 6 6 7 8 8 9 8 8 8 8
5 4 4 3 2 5 4 4 4 4 4 3 4 4 6 3 2 3 3 3 3 2 2 2 2 3 3 4 5 5 6 6 6 6 7 8 8 8 8 8 8 9 9
8 8 8 8 8 8 7 4 2 6 4 3 4 3 4 5 3 2 2 2 2 1 2 3 3 4 4 5 7 7 6 6 6 6 7 8 8 8 9 9 9 8 8
11 11 11 11 10 10 10 9 9 8 3 2 3 4 5 4 3 3 3 3 4 4 5 5 4 6 7 8 8 9 10 11 10 10 8 8 8 8 9 9 8 7 7
12 12 12 12 12 13 12 12 12 11 11 8 6 6 7 7 6 5 5 5 5 5 6 6 7 7 8 9 10 12 12 12 11 12 10 10 10 11 11 10 9 9 9